Miscellaneous Local Product
Issued by NWS Hastings, NE

Home | Current Version | Previous Version | Graphics & Text | Print | Product List | Glossary On
Versions: 1 2 3 4 5 6 7 8 9 10 11 12 13 14 15 16 17 18 19 20 21 22 23 24 25 26 27 28 29 30 31 32 33 34 35 36 37 38 39 40 41 42 43 44 45 46 47 48 49 50
000
AXUS43 KGID 221602
MISGRI

GID CWA HOURLY WEATHER ROUNDUP
NATIONAL WEATHER SERVICE HASTINGS NE
1000 AM CST SUN JAN 22 2017

NOTE: "FAIR" INDICATES FEW OR NO CLOUDS BELOW 12,000 FEET WITH NO
SIGNIFICANT WEATHER AND/OR OBSTRUCTIONS TO VISIBILITY.

...SOUTH CENTRAL NEBRASKA...

CITY           SKY/WX    TMP DP  RH WIND       PRES   REMARKS
GRAND ISLAND   SUNNY     33  29  85 NW15      29.81R WCI  23
HASTINGS       SUNNY     35  28  75 N16       29.82R WCI  25
KEARNEY        SUNNY    N/A N/A N/A MISG        N/A
ORD            SUNNY     33  26  75 NW10      29.82R WCI  25
YORK           PTSUNNY   32  30  93 N14G23    29.81R WCI  22
AURORA         SUNNY     33  30  90 N15       29.81R WCI  23
LEXINGTON      SUNNY     33  28  84 NW13      29.85R WCI  23
HOLDREGE       SUNNY     36  28  73 NW12G18   29.83R WCI  27
HEBRON         SUNNY     35  31  84 N8        29.81R WCI  28

...NEBRASKA PANHANDLE...

CITY           SKY/WX    TMP DP  RH WIND       PRES   REMARKS
CHADRON        CLOUDY    29  23  78 SW8       29.88R WCI  21
ALLIANCE       CLOUDY    28  24  85 W7        29.87R WCI  21
SCOTTSBLUFF    CLOUDY    30  22  72 W10       29.90R WCI  21
SIDNEY         SUNNY     33  23  66 NW14      29.89R WCI  23

...WESTERN AND NORTH CENTRAL NEBRASKA...

CITY           SKY/WX    TMP DP  RH WIND       PRES   REMARKS
VALENTINE      CLOUDY    26  23  88 SW7       29.84R WCI  18
AINSWORTH      MOSUNNY   32  30  91 NW10      29.83R WCI  24
ONEILL         CLOUDY    32  28  84 NW9       29.82R WCI  24
BROKEN BOW     SUNNY     35  28  75 NW8       29.83R WCI  29
IMPERIAL       SUNNY     34  26  72 N15       29.88R WCI  24
NORTH PLATTE   SUNNY     32  28  85 W7        29.87R WCI  26
MCCOOK         SUNNY     33  29  85 NW12      29.87R WCI  24

...EASTERN NEBRASKA...

CITY           SKY/WX    TMP DP  RH WIND       PRES   REMARKS
NORFOLK        CLOUDY    29  28  96 NW12      29.79R FOG     WCI  19
SO SIOUX CITY  CLOUDY    35  31  85 NW14      29.77R WCI  26
TEKAMAH        CLOUDY    34  30  85 N8        29.78R WCI  27
COLUMBUS       CLOUDY    30  27  86 N8        29.80R WCI  23
ALBION         SUNNY     30  23  73 N12       29.81R WCI  21
OMAHA EPPLEY   CLOUDY    34  29  82 N9        29.77R WCI  27
OFFUTT AFB     CLOUDY    35  34  99 N3        29.77R
MILLARD        CLOUDY    37  32  84 NW9       29.78R WCI  30
LINCOLN        CLOUDY    33  30  88 NW9       29.80R WCI  25
NEBRASKA CITY  CLOUDY    32  31  96 N15       29.77R FOG     WCI  22
BEATRICE       CLOUDY    32  31  96 N13       29.79R FOG     WCI  23
FALLS CITY     CLOUDY    32  30  92 N12G22    29.75R WCI  23

...NORTHERN KANSAS...

CITY           SKY/WX    TMP DP  RH WIND       PRES   REMARKS
GOODLAND       SUNNY     35  27  72 NW17      29.89R WCI  25
HILL CITY      SUNNY     39  32  76 N17       29.86R WCI  30
NORTON         SUNNY     36  27  69 NW14      29.84  WCI  27
PHILLIPSBURG   SUNNY     37  30  75 NW12      29.85R WCI  30
SMITH CENTER   SUNNY     37  30  75 NW14      29.83R WCI  29
HAYS           SUNNY     39  32  76 NW12      29.85R WCI  32
RUSSELL        SUNNY     39  32  76 NW13      29.81R WCI  31
CONCORDIA      SUNNY     36  31  82 NW12      29.80R WCI  28
SALINA         SUNNY     41  32  70 NW14      29.79R
TOPEKA         PTSUNNY   42  35  76 N8        29.73R



USA.gov is the U.S. government's official web portal to all federal, state and local government web resources and services.